When you browse on this site, cookies collect data to enhance your experience and personalize the content and advertising you see.
Visit our Privacy Policy to learn more. By continuing to use the site, you agree to this use of cookies and data.
  • Em Portugal
  • Lista de países
  • Para 7 dias
  • Temperatura da água
  • Mapa do tempo
  • Widgets de tempo
  • user-avatar
    Iniciar Sessão

    Previsão horária em Wilczogora

    Hoje, 21 Agosto, Quarta-feira

    Tempo Temperatura Precipitação Vento Pressão Humidade
    00:00 +18°C° 2.2 mm 3 m/s 756 mmHg 77%
    01:00 +17°C° 0 mm 3 m/s 756 mmHg 91%
    02:00 +17°C° 2.1 mm 4 m/s 756 mmHg 91%
    03:00 +15°C° 2.1 mm 4 m/s 757 mmHg 91%
    04:00 +15°C° 2.1 mm 5 m/s 757 mmHg 91%
    05:00 +15°C° 0.5 mm 5 m/s 757 mmHg 91%
    06:00 +15°C° 0.5 mm 5 m/s 758 mmHg 90%
    07:00 +15°C° 0.5 mm 4 m/s 758 mmHg 89%
    08:00 +15°C° 0 mm 4 m/s 759 mmHg 88%
    09:00 +16°C° 0 mm 3 m/s 759 mmHg 86%
    10:00 +17°C° 0 mm 2 m/s 760 mmHg 85%
    11:00 +17°C° 0 mm 2 m/s 760 mmHg 82%
    12:00 +18°C° 0 mm 2 m/s 760 mmHg 79%
    13:00 +19°C° 0 mm 2 m/s 760 mmHg 76%
    14:00 +20°C° 0 mm 2 m/s 760 mmHg 70%
    15:00 +21°C° 0 mm 2 m/s 760 mmHg 64%
    16:00 +23°C° 0 mm 2 m/s 760 mmHg 59%
    17:00 +21°C° 0 mm 2 m/s 760 mmHg 63%
    18:00 +19°C° 0 mm 2 m/s 760 mmHg 68%
    19:00 +19°C° 0 mm 1 m/s 760 mmHg 72%
    20:00 +19°C° 0 mm 1 m/s 761 mmHg 74%
    21:00 +18°C° 0 mm 1 m/s 761 mmHg 76%
    22:00 +16°C° 0 mm 1 m/s 761 mmHg 77%
    23:00 +16°C° 0 mm 1 m/s 761 mmHg 79%

    Amanhã, 22 Agosto, Quinta-feira

    Tempo Temperatura Precipitação Vento Pressão Humidade
    00:00 +15°C° 0 mm 1 m/s 762 mmHg 80%
    01:00 +15°C° 0 mm 1 m/s 762 mmHg 82%
    02:00 +15°C° 0 mm 1 m/s 762 mmHg 83%
    03:00 +14°C° 0 mm 1 m/s 761 mmHg 84%
    04:00 +14°C° 0 mm 1 m/s 761 mmHg 85%
    05:00 +15°C° 0 mm 1 m/s 762 mmHg 83%
    06:00 +16°C° 0 mm 1 m/s 762 mmHg 80%
    07:00 +18°C° 0 mm 1 m/s 762 mmHg 78%
    08:00 +18°C° 0 mm 2 m/s 762 mmHg 72%
    09:00 +20°C° 0 mm 2 m/s 762 mmHg 67%
    10:00 +21°C° 0 mm 2 m/s 762 mmHg 61%
    11:00 +23°C° 0 mm 2 m/s 762 mmHg 57%
    12:00 +24°C° 0 mm 2 m/s 762 mmHg 53%
    13:00 +25°C° 0 mm 2 m/s 762 mmHg 49%
    14:00 +25°C° 0 mm 2 m/s 761 mmHg 49%
    15:00 +25°C° 0 mm 2 m/s 761 mmHg 48%
    16:00 +25°C° 0 mm 2 m/s 761 mmHg 48%
    17:00 +23°C° 0 mm 2 m/s 761 mmHg 53%
    18:00 +21°C° 0 mm 2 m/s 761 mmHg 58%
    19:00 +20°C° 0 mm 2 m/s 760 mmHg 63%
    20:00 +19°C° 0 mm 2 m/s 761 mmHg 66%
    21:00 +18°C° 0 mm 2 m/s 761 mmHg 69%
    22:00 +18°C° 0 mm 2 m/s 761 mmHg 72%
    23:00 +17°C° 0 mm 2 m/s 761 mmHg 73%

    Depois de amanhã, 23 Agosto, Sexta-feira

    Tempo Temperatura Precipitação Vento Pressão Humidade
    00:00 +17°C° 0 mm 2 m/s 761 mmHg 74%
    01:00 +16°C° 0 mm 2 m/s 761 mmHg 74%
    02:00 +16°C° 0 mm 2 m/s 761 mmHg 75%
    03:00 +15°C° 0 mm 2 m/s 761 mmHg 76%
    04:00 +15°C° 0 mm 2 m/s 761 mmHg 77%
    05:00 +16°C° 0 mm 2 m/s 761 mmHg 74%
    06:00 +17°C° 0 mm 2 m/s 761 mmHg 71%
    07:00 +18°C° 0 mm 2 m/s 761 mmHg 69%
    08:00 +19°C° 0 mm 3 m/s 761 mmHg 63%
    09:00 +21°C° 0 mm 3 m/s 761 mmHg 57%
    10:00 +24°C° 0 mm 3 m/s 761 mmHg 52%
    11:00 +25°C° 0 mm 3 m/s 761 mmHg 48%
    12:00 +25°C° 0 mm 3 m/s 761 mmHg 45%
    13:00 +26°C° 0 mm 4 m/s 761 mmHg 41%
    14:00 +26°C° 0 mm 4 m/s 760 mmHg 41%
    15:00 +26°C° 0 mm 4 m/s 760 mmHg 41%
    16:00 +26°C° 0 mm 4 m/s 760 mmHg 41%
    17:00 +25°C° 0 mm 3 m/s 759 mmHg 46%
    18:00 +22°C° 0 mm 3 m/s 759 mmHg 51%
    19:00 +20°C° 0 mm 2 m/s 759 mmHg 56%
    20:00 +20°C° 0 mm 3 m/s 759 mmHg 58%
    21:00 +19°C° 0 mm 3 m/s 759 mmHg 61%
    22:00 +18°C° 0 mm 3 m/s 759 mmHg 63%
    23:00 +18°C° 0 mm 3 m/s 759 mmHg 65%

    24 Agosto, Sábado

    Tempo Temperatura Precipitação Vento Pressão Humidade
    00:00 +17°C° 0 mm 3 m/s 759 mmHg 67%
    01:00 +17°C° 0 mm 3 m/s 759 mmHg 69%
    02:00 +16°C° 0 mm 3 m/s 759 mmHg 72%
    03:00 +16°C° 0 mm 3 m/s 759 mmHg 74%
    04:00 +16°C° 0 mm 3 m/s 759 mmHg 76%
    05:00 +16°C° 0 mm 3 m/s 759 mmHg 74%
    06:00 +17°C° 0 mm 3 m/s 759 mmHg 72%
    07:00 +18°C° 0 mm 4 m/s 758 mmHg 69%
    08:00 +20°C° 0 mm 4 m/s 758 mmHg 64%
    09:00 +22°C° 0 mm 4 m/s 759 mmHg 58%
    10:00 +25°C° 0 mm 4 m/s 759 mmHg 53%
    11:00 +25°C° 0 mm 4 m/s 758 mmHg 50%
    12:00 +26°C° 0 mm 4 m/s 758 mmHg 48%
    13:00 +27°C° 0 mm 4 m/s 757 mmHg 45%
    14:00 +27°C° 0 mm 4 m/s 757 mmHg 46%
    15:00 +27°C° 0 mm 4 m/s 757 mmHg 46%
    16:00 +27°C° 0 mm 4 m/s 757 mmHg 47%
    17:00 +25°C° 0 mm 4 m/s 757 mmHg 52%
    18:00 +24°C° 0 mm 3 m/s 757 mmHg 57%
    19:00 +21°C° 0 mm 3 m/s 756 mmHg 62%
    20:00 +21°C° 0 mm 3 m/s 757 mmHg 64%
    21:00 +20°C° 0 mm 3 m/s 757 mmHg 65%
    22:00 +19°C° 0 mm 3 m/s 757 mmHg 66%
    23:00 +18°C° 0 mm 3 m/s 757 mmHg 67%

    25 Agosto, Domingo

    Tempo Temperatura Precipitação Vento Pressão Humidade
    00:00 +18°C° 0 mm 3 m/s 757 mmHg 68%
    01:00 +17°C° 0 mm 3 m/s 757 mmHg 70%
    02:00 +17°C° 0 mm 3 m/s 757 mmHg 71%
    03:00 +17°C° 0 mm 3 m/s 756 mmHg 72%
    04:00 +16°C° 0 mm 3 m/s 756 mmHg 72%
    05:00 +17°C° 0 mm 4 m/s 756 mmHg 70%
    06:00 +18°C° 0 mm 4 m/s 757 mmHg 68%
    07:00 +19°C° 0 mm 4 m/s 757 mmHg 66%
    08:00 +20°C° 0 mm 5 m/s 757 mmHg 61%
    09:00 +22°C° 0 mm 5 m/s 757 mmHg 57%
    10:00 +25°C° 0 mm 5 m/s 757 mmHg 52%
    11:00 +26°C° 0 mm 5 m/s 757 mmHg 51%
    12:00 +27°C° 0 mm 5 m/s 756 mmHg 50%
    13:00 +27°C° 0 mm 5 m/s 756 mmHg 49%
    14:00 +28°C° 0 mm 5 m/s 756 mmHg 50%
    15:00 +28°C° 0 mm 5 m/s 756 mmHg 50%
    16:00 +28°C° 0 mm 5 m/s 755 mmHg 51%
    17:00 +26°C° 0 mm 5 m/s 755 mmHg 56%
    18:00 +25°C° 0 mm 4 m/s 755 mmHg 61%
    19:00 +23°C° 0 mm 4 m/s 755 mmHg 66%
    20:00 +22°C° 0 mm 4 m/s 755 mmHg 66%
    21:00 +22°C° 0 mm 4 m/s 756 mmHg 66%
    22:00 +21°C° 0 mm 5 m/s 756 mmHg 67%
    23:00 +21°C° 0 mm 5 m/s 756 mmHg 68%

    26 Agosto, Segunda-feira

    Tempo Temperatura Precipitação Vento Pressão Humidade
    00:00 +20°C° 0 mm 4 m/s 755 mmHg 70%
    01:00 +20°C° 0 mm 4 m/s 755 mmHg 72%
    02:00 +19°C° 0 mm 4 m/s 755 mmHg 75%
    03:00 +19°C° 0 mm 4 m/s 755 mmHg 77%
    04:00 +18°C° 0 mm 4 m/s 754 mmHg 80%
    05:00 +19°C° 0 mm 4 m/s 754 mmHg 79%
    06:00 +20°C° 0 mm 4 m/s 754 mmHg 78%
    07:00 +20°C° 0 mm 4 m/s 754 mmHg 77%
    08:00 +22°C° 0 mm 4 m/s 754 mmHg 73%
    09:00 +25°C° 0 mm 4 m/s 754 mmHg 68%
    10:00 +26°C° 0 mm 4 m/s 754 mmHg 63%
    11:00 +28°C° 0 mm 4 m/s 753 mmHg 59%
    12:00 +29°C° 0 mm 4 m/s 753 mmHg 56%
    13:00 +30°C° 0 mm 4 m/s 753 mmHg 52%
    14:00 +30°C° 0 mm 4 m/s 752 mmHg 50%
    15:00 +32°C° 0 mm 4 m/s 752 mmHg 48%
    16:00 +31°C° 0 mm 3 m/s 752 mmHg 46%
    17:00 +30°C° 0.2 mm 3 m/s 751 mmHg 51%
    18:00 +28°C° 0.2 mm 3 m/s 751 mmHg 56%
    19:00 +27°C° 0.2 mm 3 m/s 751 mmHg 61%
    20:00 +26°C° 1.4 mm 3 m/s 751 mmHg 66%
    21:00 +25°C° 1.4 mm 3 m/s 751 mmHg 71%
    22:00 +24°C° 1.4 mm 3 m/s 752 mmHg 76%
    23:00 +24°C° 0.4 mm 2 m/s 751 mmHg 78%
    Mostrar mais